{"data":{"norad_id":28358,"epoch":"2026-05-25T03:44:17.294208Z","epoch_age_seconds":61022,"freshness":"FRESH","line1":"1 28358U 04022A   26145.15575572 -.00000013  00000+0  00000+0 0  9992","line2":"2 28358   0.0340  57.9406 0000178 116.9213 122.9759  1.00271497 80324","mean_motion":1.00271497,"eccentricity":1.78e-5,"inclination_deg":0.034,"raan_deg":57.9406,"arg_perigee_deg":116.9213,"mean_anomaly_deg":122.9759,"bstar":0,"rev_number":8032,"period_min":1436.1010287899,"perigee_km":35785.925164573,"apogee_km":35787.426231905,"semimajor_km":42164.812698239,"source":"CELESTRAK","updated_at":"2026-05-25T13:38:14.324274Z"}}